Dewpoint
55 54 54 54 54 53 52 53 53 53 52 52 50 50 29 24 19 23 32 45 38 34 29 42 39 28 30 30 26 29 26 30 27 24 23 22 14 7 10 13 16 18 19 22 19 24 24 22 23 21 21 18 21 22 25 23 29 24 22 24 22 57 32 29 33 37 39 34 34 36 35 35 35 34 39 48 48 49 38 33 35 38 40 38 37 36 39
54 54 54 54 54 53 53 54 54 54 53 53 51 39 33 30 29 33 37 42 36 35 31 31 28 32 38 32 25 27 26 26 24 23 22 17 11 6 7 11 15 17 20 21 20 24 20 24 23 23 25 23 23 29 29 31 29 23 21 23 24 23 29 30 30 33 34 30 32 33 37 37 34 33 43 49 50 50 47 37 40 38 40 39 35 32 36
54 54 54 53 53 53 53 54 54 54 54 54 49 40 39 40 38 39 42 49 32 33 31 31 28 39 31 27 29 31 25 24 24 23 18 31 12 5 4 10 9 9 21 27 28 27 21 26 25 24 25 25 32 26 28 32 34 41 42 49 36 31 33 33 28 27 23 24 27 31 37 39 37 41 49 50 50 51 47 29 37 31 38 39 35 35 43
54 54 54 53 53 53 54 54 54 54 54 53 50 46 35 28 21 25 39 41 42 40 37 34 30 32 35 36 36 28 25 30 28 21 16 18 12 4 7 9 16 21 24 24 24 26 28 24 26 30 29 30 28 27 28 38 41 58 53 53 41 35 40 37 34 31 27 30 37 39 41 41 45 47 48 49 51 52 41 37 35 30 36 38 39 40 52
54 53 53 53 53 53 53 53 54 54 54 53 51 47 34 38 34 38 38 40 40 41 41 42 42 39 36 35 34 33 31 30 27 17 12 13 7 13 12 11 14 14 23 23 22 26 27 34 29 31 31 31 28 31 31 27 46 56 50 50 36 37 32 36 37 36 32 34 37 36 46 45 47 47 47 49 50 52 51 42 36 45 33 29 40 49 53
54 53 53 53 53 53 53 53 53 54 53 52 51 40 45 30 33 42 43 34 32 37 37 41 43 43 40 37 33 31 33 33 32 30 18 18 18 7 12 14 10 11 21 22 22 27 30 32 28 33 33 32 28 25 29 27 38 40 26 42 33 33 31 33 37 35 38 36 37 40 47 47 46 46 47 49 50 52 51 52 53 50 32 28 45 52 53
53 52 52 54 54 53 53 53 53 53 52 51 50 42 43 37 40 46 47 40 41 39 40 45 46 40 40 41 39 37 35 34 33 30 27 18 18 11 16 17 12 13 23 22 23 30 22 25 31 31 28 29 30 27 25 24 32 28 28 31 40 30 30 32 38 38 39 40 41 42 45 46 45 45 47 49 50 51 52 52 54 51 52 52 54 55 55
53 52 53 53 54 54 53 53 53 53 51 50 48 45 43 45 45 44 48 46 45 46 45 44 41 37 43 35 37 38 35 34 34 33 23 23 19 23 17 17 24 24 26 30 18 23 23 28 28 33 30 27 31 29 26 25 30 31 28 29 34 25 27 41 37 35 35 36 42 41 44 43 42 44 47 49 49 51 52 52 53 54 54 54 55 55 55
53 52 52 53 53 54 53 53 53 52 52 46 47 46 45 46 49 48 44 40 40 47 44 41 41 37 38 40 40 42 38 35 36 34 31 28 24 22 15 19 24 29 28 26 20 21 29 34 29 33 28 25 32 24 27 28 29 32 28 33 34 30 26 37 35 29 29 34 39 41 42 42 41 42 44 47 48 48 51 51 53 53 52 54 55 54 54
53 52 52 52 53 53 53 53 53 52 51 49 45 40 45 47 48 50 45 38 50 41 43 43 34 32 37 43 42 38 37 37 36 33 35 28 23 18 16 21 23 29 23 20 16 18 31 29 26 31 29 24 33 32 29 28 29 30 29 33 28 31 31 30 30 25 27 33 41 44 42 35 33 37 43 46 47 49 51 53 54 53 53 53 51 52 56
52 52 52 53 52 54 53 54 54 53 53 51 50 47 47 46 45 46 45 39 40 42 41 39 35 41 40 41 39 39 38 38 38 33 34 34 26 21 20 23 22 24 23 22 23 24 32 26 25 17 22 25 32 32 40 37 35 29 30 29 32 39 32 31 33 22 25 32 38 40 34 29 31 41 47 51 49 49 50 51 53 54 54 54 54 54 56
52 52 52 52 52 53 54 54 54 55 53 54 53 51 51 50 46 45 42 38 40 42 41 38 41 43 41 40 40 39 37 37 37 36 36 35 34 27 26 29 24 24 29 29 29 25 25 29 31 28 30 33 33 33 31 30 32 44 31 26 34 42 37 35 34 27 26 33 36 32 27 32 42 46 50 53 53 53 53 53 53 54 54 54 53 54 55
52 52 52 52 52 53 55 55 55 56 54 54 53 51 53 52 47 47 44 41 38 41 39 40 45 43 41 40 36 37 38 39 40 41 38 36 36 23 24 28 23 25 27 20 21 22 17 23 29 37 26 33 29 25 33 33 33 34 31 34 35 35 36 38 36 32 29 30 29 21 25 36 42 44 50 52 51 50 49 48 51 54 54 54 54 55 55
52 52 52 52 51 52 53 55 56 56 56 54 52 52 53 51 47 47 45 43 43 42 44 43 38 41 38 37 37 36 40 40 40 39 36 35 36 28 19 33 26 29 24 28 30 21 19 31 22 23 20 28 26 19 27 32 35 33 34 35 38 35 37 34 29 34 26 26 28 25 35 38 41 43 44 49 46 45 46 43 44 50 54 54 54 55 57
52 51 52 52 51 51 52 54 56 56 56 53 54 53 52 52 50 47 46 44 41 44 43 36 39 40 39 39 38 38 40 41 38 38 39 39 34 25 20 21 29 26 24 21 30 31 20 30 21 21 25 19 14 17 32 27 31 38 40 39 36 33 29 32 28 29 35 32 31 30 31 30 36 42 46 49 49 48 47 47 45 47 53 55 55 55 57
52 52 52 51 51 51 52 53 55 56 56 53 54 52 53 52 50 47 46 44 41 38 37 41 43 42 40 40 40 39 39 40 38 40 38 39 36 23 21 24 26 32 35 38 38 33 31 23 22 23 21 22 28 25 24 32 28 30 36 40 39 38 36 32 26 29 33 31 28 28 29 33 40 41 44 48 49 49 46 40 37 43 53 56 56 56 57
52 51 52 52 51 51 51 52 54 55 56 54 53 53 51 50 48 46 47 47 43 40 40 45 46 44 41 39 40 39 40 36 39 37 35 37 36 37 23 31 29 36 37 32 36 30 28 30 30 27 29 31 23 23 30 28 26 27 31 35 37 38 37 34 33 33 34 31 29 28 32 33 40 43 45 47 49 45 39 33 35 43 53 56 57 57 57
52 51 51 51 51 51 51 51 52 54 55 54 54 53 53 52 50 49 49 46 44 45 46 49 46 42 40 41 38 40 40 40 38 40 39 42 41 38 36 35 22 22 30 25 37 31 31 29 24 24 22 33 30 27 17 28 25 25 25 29 30 34 35 34 30 34 37 35 29 31 32 39 43 45 46 48 50 42 35 32 37 45 54 56 57 57 57
52 51 51 51 51 51 51 51 51 53 54 54 54 54 52 50 50 50 47 46 46 43 46 49 48 45 44 45 42 42 38 35 33 30 31 33 40 39 36 36 32 22 34 36 35 31 26 26 36 30 27 30 30 24 30 18 21 30 31 28 28 30 35 36 36 33 33 33 30 30 32 36 42 45 48 50 42 36 35 40 45 52 54 55 57 57 57
51 50 50 50 50 50 51 51 52 53 54 55 54 52 53 53 52 50 47 44 46 47 49 49 49 46 45 42 42 41 40 39 39 36 35 30 39 34 31 24 31 32 30 33 23 32 27 27 31 33 29 30 32 35 22 24 30 32 30 31 29 30 30 29 31 34 34 31 31 28 22 35 45 46 46 47 40 39 42 49 53 55 55 56 56 56 57
50 50 50 50 50 50 51 52 53 52 53 55 54 53 51 51 53 53 53 51 49 47 46 48 51 50 50 49 47 45 42 39 38 35 37 36 39 36 26 30 29 33 24 28 22 25 30 28 34 31 33 32 33 28 26 25 27 31 34 34 32 36 27 28 32 36 30 30 29 28 33 41 45 44 40 44 47 47 48 53 52 54 55 56 55 55 56
50 50 50 50 50 51 52 53 52 51 52 54 54 54 51 52 53 54 55 52 48 47 45 46 50 50 49 50 50 49 48 46 45 41 39 39 40 41 40 39 39 39 38 40 34 32 35 36 36 32 30 32 34 27 29 23 22 28 33 32 24 35 31 34 29 36 35 33 35 37 41 44 46 47 46 47 50 53 53 55 54 54 55 56 55 56 56
50 50 50 50 50 51 53 53 52 51 52 54 55 54 52 53 54 56 54 49 49 49 51 49 49 49 51 51 51 51 50 50 50 49 44 40 38 40 38 38 39 45 47 43 35 34 36 37 34 36 35 35 31 32 31 26 24 29 30 33 32 39 39 41 42 39 42 42 42 45 47 48 50 51 51 52 53 54 56 56 55 55 56 57 57 57 57
49 49 50 50 50 51 53 53 53 53 54 55 55 53 53 54 54 54 51 50 47 46 48 47 46 45 45 45 47 48 52 52 51 50 48 43 39 38 41 42 41 44 43 47 45 41 40 38 33 38 30 33 36 32 29 27 30 31 35 35 38 41 44 41 39 41 37 37 43 47 47 49 50 51 52 52 52 53 54 54 55 56 57 57 57 58 58
49 49 51 50 50 51 52 53 54 55 55 55 55 55 56 54 54 53 49 44 43 44 43 45 45 46 47 48 49 49 49 49 52 51 47 43 41 39 40 42 44 44 42 45 46 41 43 38 35 34 30 35 36 30 35 32 27 36 30 34 37 38 44 41 41 39 37 38 43 46 49 50 51 51 52 52 53 54 54 54 56 57 58 57 57 57 57
49 50 51 50 50 51 52 53 54 55 55 55 55 54 52 53 54 54 53 52 50 47 43 43 44 48 50 49 47 46 46 47 45 46 48 45 42 41 40 41 41 51 52 50 47 42 40 40 40 38 33 34 39 33 35 33 31 36 34 34 39 40 44 36 41 40 41 43 45 47 49 49 50 52 53 54 55 55 54 54 55 56 57 57 57 57 56
49 50 50 50 50 51 52 52 53 54 55 55 55 54 54 54 55 53 51 50 47 43 46 44 47 49 49 47 47 48 48 48 47 45 44 45 44 44 42 41 41 44 45 45 46 44 41 40 38 35 39 36 41 39 40 37 35 34 32 36 42 42 38 41 43 41 40 42 44 47 42 42 47 50 52 53 54 55 54 55 55 56 55 56 57 56 57
49 49 49 50 51 52 53 53 53 54 54 54 55 55 55 54 54 54 54 53 48 41 42 46 45 45 48 46 49 48 47 47 45 42 38 39 41 43 42 41 42 44 46 46 45 43 39 33 34 41 44 42 38 34 41 41 39 36 37 37 43 40 40 41 40 40 39 43 45 47 45 46 49 51 53 54 55 55 54 55 55 55 56 56 56 56 56
49 49 51 52 52 53 53 54 54 54 54 54 54 53 53 54 54 54 55 54 52 49 47 46 47 44 40 40 46 45 44 43 39 36 36 37 40 41 42 43 44 46 47 45 45 43 40 42 44 40 37 44 39 35 36 33 33 32 35 39 42 43 43 42 42 42 42 44 46 47 48 47 48 52 54 54 55 54 54 55 55 56 56 57 56 57 56
49 50 51 52 53 53 53 53 53 54 54 54 53 50 47 48 51 53 54 54 53 49 44 41 39 40 45 48 46 45 44 44 44 42 43 37 40 43 44 44 49 54 46 43 42 40 43 40 42 44 48 49 37 37 33 34 34 35 40 42 43 46 46 45 44 42 41 45 47 47 49 49 50 51 52 53 54 54 52 52 53 54 55 56 56 56 57
49 51 52 52 52 53 53 53 54 54 54 53 51 47 43 41 47 54 54 54 54 52 49 47 45 47 44 48 49 46 44 47 47 46 48 45 40 42 49 47 50 51 45 43 40 40 42 38 42 42 43 52 46 36 35 35 33 37 41 44 46 46 46 44 47 47 46 47 48 49 49 49 50 49 50 51 51 53 53 54 55 55 54 54 54 55 56
50 51 52 52 52 52 53 53 54 54 54 52 49 49 49 50 52 53 53 54 54 51 48 44 43 38 36 41 44 49 50 50 46 48 46 50 45 48 47 47 45 51 47 42 44 40 40 43 44 43 39 44 48 40 39 38 36 37 41 44 46 46 46 46 47 47 48 49 48 47 47 48 48 48 48 50 51 52 53 54 54 55 56 54 54 54 54
49 51 51 51 52 52 53 53 54 54 53 53 53 53 53 53 53 53 54 53 52 50 50 47 42 40 39 40 42 43 49 46 43 45 41 48 44 47 45 51 49 48 51 44 39 39 45 46 45 40 41 46 40 42 39 37 38 41 43 48 46 46 46 47 47 48 48 48 47 46 45 46 46 48 49 51 53 52 51 51 52 52 52 52 52 52 52
50 51 52 52 52 52 53 54 54 54 53 51 49 50 51 52 52 53 53 52 49 48 49 45 43 40 41 43 37 40 49 42 40 46 39 46 49 45 44 48 48 45 47 43 44 42 43 47 42 42 41 40 43 37 34 37 40 43 47 47 47 48 48 48 47 47 47 47 48 47 47 47 47 48 50 51 50 50 51 51 51 51 51 51 51 51 51
51 52 52 52 52 53 53 54 53 52 50 50 50 51 51 53 52 53 53 51 47 45 46 45 45 41 37 33 34 38 47 45 42 45 42 43 51 43 45 43 45 41 46 48 43 42 40 42 47 39 37 39 35 31 33 35 41 46 46 47 47 47 46 46 46 47 47 48 47 46 46 46 47 48 49 49 49 49 49 50 50 50 50 50 50 50 50
52 52 52 53 53 53 53 53 52 51 49 48 50 54 56 55 55 53 53 54 52 47 44 41 40 37 33 29 28 34 49 43 45 46 47 47 45 49 48 44 41 45 48 44 40 45 40 48 44 36 41 35 36 36 37 38 45 47 47 47 47 46 45 46 46 47 48 48 47 46 45 46 46 47 48 48 48 48 49 49 49 50 50 50 50 50 49
51 52 52 53 53 52 49 50 52 51 50 51 53 57 55 55 54 54 52 51 52 53 46 44 41 40 34 32 35 40 43 36 43 44 46 45 42 48 46 44 41 47 44 43 43 43 45 52 41 38 38 36 40 43 41 43 47 47 47 47 48 47 48 48 48 48 47 46 46 45 44 44 45 46 47 47 47 48 48 48 49 49 49 49 50 49 49
51 52 51 51 50 48 48 50 51 53 54 54 54 52 50 51 47 48 48 45 46 52 45 43 41 41 41 37 36 43 42 39 43 41 42 46 42 41 46 45 46 47 39 41 44 47 48 44 40 38 40 43 45 46 47 46 48 48 48 48 48 48 48 48 48 47 46 45 44 44 45 44 44 44 45 46 47 47 48 49 49 50 50 51 50 50 49
51 51 51 50 49 48 50 52 56 57 55 55 53 49 46 48 44 43 46 47 50 46 46 42 41 41 39 37 38 43 43 41 39 40 38 41 42 39 43 40 42 44 37 40 42 47 41 41 40 39 39 43 44 45 49 49 48 48 48 49 49 49 49 48 47 47 46 45 45 44 43 43 43 43 44 45 46 47 48 49 49 50 51 50 50 50 49
50 48 49 49 48 50 55 54 54 54 54 47 46 47 44 45 40 38 42 42 41 44 46 41 43 41 40 37 37 39 47 41 37 36 40 42 46 41 43 43 43 41 36 35 42 48 40 38 38 38 38 41 45 48 49 49 48 47 48 49 50 49 48 47 48 48 48 47 47 46 45 43 43 44 45 46 46 47 48 49 50 50 50 50 50 49 49
50 50 51 50 51 50 52 52 53 49 47 44 44 44 41 38 40 39 41 36 34 36 44 43 42 40 42 39 38 35 44 52 47 46 43 41 46 47 40 39 44 40 37 37 45 43 41 39 39 38 38 42 44 47 49 48 49 48 48 49 50 50 48 48 48 48 47 47 47 47 46 45 45 45 46 46 47 47 49 49 49 50 50 51 50 49 49
50 49 50 51 51 51 52 51 49 45 43 45 41 36 36 39 42 39 38 34 35 37 38 42 39 39 40 40 37 41 43 49 48 48 42 40 46 41 41 44 44 39 35 42 46 42 39 36 36 37 41 42 43 46 49 48 49 48 49 50 51 50 48 48 47 48 48 47 47 47 46 46 46 47 48 48 48 49 49 50 50 50 49 49 49 47 47
51 52 51 50 50 49 48 41 44 43 37 36 34 35 36 33 36 35 36 38 41 37 40 42 41 42 43 48 43 46 42 50 45 44 43 41 45 43 41 38 38 33 39 45 41 39 36 34 34 37 41 43 44 48 50 48 49 49 49 50 50 50 48 48 47 47 47 47 47 47 47 47 47 48 49 50 50 50 51 52 51 49 48 48 47 47 47
51 52 50 49 46 45 43 36 45 43 37 33 33 32 33 34 35 36 37 36 37 36 39 36 39 36 36 40 43 45 45 46 48 46 44 46 41 41 40 36 38 41 45 41 39 36 38 38 38 39 41 43 45 48 50 49 49 50 50 50 50 49 49 49 48 48 48 49 48 48 48 48 49 50 50 50 50 49 48 48 50 48 48 47 46 46 47
49 48 44 43 42 42 37 35 42 38 34 36 36 35 35 32 32 35 35 42 40 39 44 44 43 40 41 42 44 44 45 43 47 42 41 43 40 41 38 38 42 43 39 37 37 37 37 39 41 42 43 45 45 48 50 50 50 49 49 49 49 49 49 48 48 48 48 48 48 49 49 49 49 49 49 49 49 48 48 47 48 47 46 46 46 46 47
46 40 39 39 38 38 35 34 36 35 37 39 38 38 36 36 37 39 41 46 43 44 44 45 46 45 42 43 39 39 43 43 41 43 45 42 39 37 42 45 43 40 38 35 35 34 36 38 40 41 43 45 46 48 50 50 50 50 49 49 49 49 49 49 48 48 49 49 49 49 49 49 48 48 47 48 47 47 47 47 47 46 45 45 45 45 45
46 48 38 36 35 34 39 34 37 40 41 40 41 41 40 40 41 42 45 46 44 46 46 47 46 45 38 38 39 40 41 42 42 44 44 40 40 40 44 41 36 36 35 34 34 36 37 38 40 41 43 46 48 49 50 50 50 50 49 49 50 49 49 49 49 49 49 49 49 48 48 48 48 47 47 46 46 46 47 46 45 46 45 45 45 45 45
37 41 42 36 34 35 35 38 39 40 41 42 41 42 43 43 42 42 44 46 46 46 46 46 44 42 41 42 42 39 38 40 41 41 42 40 40 37 33 37 36 37 37 36 36 37 38 39 40 42 43 48 50 50 50 50 50 49 49 50 49 49 49 49 49 49 49 48 48 48 47 47 47 47 46 45 45 45 45 45 45 45 45 45 44 44 44
46 37 36 35 38 37 38 41 39 38 40 41 43 44 44 43 43 44 45 47 47 47 47 46 46 42 38 40 37 38 36 37 36 36 40 37 36 34 34 31 34 34 39 39 38 38 39 40 43 44 47 50 50 51 51 50 50 50 50 49 49 49 49 49 49 49 48 48 47 47 47 47 46 46 45 45 44 44 45 45 45 45 45 45 45 45 45
41 40 44 40 42 42 42 43 40 39 40 41 42 41 42 42 42 44 46 48 48 47 46 45 45 42 40 39 32 35 37 39 37 37 36 35 36 36 36 34 34 34 34 36 38 40 41 43 46 47 49 50 51 51 50 50 51 51 50 49 49 49 49 50 49 49 48 47 47 47 47 46 45 45 45 44 44 45 44 44 44 44 44 45 45 45 45
45 40 41 45 42 39 39 38 38 38 39 40 41 42 42 43 43 44 47 49 46 43 42 40 37 36 35 31 30 30 33 39 38 37 36 36 37 36 34 33 34 37 37 39 41 42 43 45 48 48 49 50 51 50 50 50 51 50 50 49 49 49 50 49 48 47 47 47 47 49 46 45 45 45 45 45 44 44 44 45 44 44 44 44 44 44 45
38 37 39 42 43 43 43 42 42 42 42 42 42 44 45 44 46 46 49 47 44 42 39 41 36 32 31 31 35 36 40 37 36 37 35 37 38 36 35 35 36 38 40 40 41 43 47 47 48 50 50 51 51 50 50 51 50 50 49 49 49 48 49 48 47 47 47 46 46 45 45 45 45 44 45 44 43 43 42 43 44 44 44 44 44 44 44